Regional Weather Roundup
Issued by NWS

Home | Current Version | Previous Version | Text Only | Print | Product List | Glossary On
Versions: 1 2 3 4 5 6 7 8 9 10 11 12 13 14 15 16 17 18 19 20 21 22 23 24 25 26 27 28 29 30 31 32 33 34 35 36 37 38 39 40 41 42 43 44 45 46 47 48 49 50
000
ASUS43 KLSX 312207
RWRMO

WEATHER SUMMARY FOR MISSOURI
NATIONAL WEATHER SERVICE SPRINGFIELD MO
500 PM CDT THU JUL 31 2014

NOTE: "FAIR" INDICATES FEW OR NO CLOUDS BELOW 12,000 FEET WITH NO
       SIGNIFICANT WEATHER AND/OR OBSTRUCTIONS TO VISIBILITY.
       CURRENT SKY AND/OR WEATHER CONDITIONS ARE NOT AVAILABLE FOR
       CHILLICOTHE AND FARMINGTON.

MOZ001>031-035>038-043-044-053-054-312300-
...NORTHERN AND WESTERN MISSOURI...

CITY           SKY/WX    TMP DP  RH WIND       PRES   REMARKS
KANSAS CTY INT PTSUNNY   82  55  39 VRB5      30.06F
KANSAS C DTWN  MOSUNNY   85  54  34 E6        30.04F
LEE`S SUMMIT   MOSUNNY   83  54  36 E3        30.07F
ST JOSEPH      SUNNY     82  55  39 MISG      30.05F
CHILLICOTHE      N/A     82  55  39 S5        30.06F
KIRKSVILLE     SUNNY     84  54  35 W3        30.07F

$$
MOZ066>068-077>081-088>096-101>105-312300-
...SOUTHWEST MISSOURI...

CITY           SKY/WX    TMP DP  RH WIND       PRES   REMARKS
SPRINGFIELD    MOSUNNY   80  62  54 S10       30.07S
JOPLIN         PTSUNNY   80  63  55 NE6       30.06S

$$
MOZ032>034-039>042-045>050-055>058-069>072-312300-
...CENTRAL MISSOURI...

CITY           SKY/WX    TMP DP  RH WIND       PRES   REMARKS
COLUMBIA       SUNNY     85  54  34 NE7       30.05F
JEFFERSON CITY MOSUNNY   84  52  33 CALM      30.03F
ROLLA          PTSUNNY   84  51  31 CALM      30.05S
SEDALIA        SUNNY     85  56  37 CALM      30.06F
WHITEMAN AFB   SUNNY     82  44  25 CALM      30.05F
OSAGE BEACH      N/A     84  55  37 NE9       30.04F

$$
MOZ051-052-059>065-312300-
...EAST CENTRAL MISSOURI...

CITY           SKY/WX    TMP DP  RH WIND       PRES   REMARKS
ST LOUIS INTL  MOSUNNY   84  57  39 CALM      30.05F
SPIRIT OF STL  PTSUNNY   85  55  35 VRB5      30.03F
ST CHARLES     SUNNY     84  58  40 E6        30.04F

$$
MOZ072>076-082>087-097>100-106>115-312300-
...SOUTH CENTRAL AND SOUTHEAST MISSOURI...

CITY           SKY/WX    TMP DP  RH WIND       PRES   REMARKS
CAPE GIRARDEAU MOSUNNY   77  64  64 SW7       30.07F
FARMINGTON     MOSUNNY   81  57  44 SE9       30.08F
POPLAR BLUFF   PTSUNNY   75  64  68 SW8       30.07S
WEST PLAINS    CLOUDY    75  65  70 S7        30.09F

$$


USA.gov is the U.S. government's official web portal to all federal, state and local government web resources and services.